Regional Weather Roundup
Issued by NWS

Home | Current Version | Previous Version | Text Only | Print | Product List | Glossary On
Versions: 1 2 3 4 5 6 7 8 9 10 11 12 13 14 15 16 17 18 19 20 21 22 23 24 25 26 27 28 29 30 31 32 33 34 35 36 37 38 39 40 41 42 43 44 45 46 47 48 49 50
000
ASUS44 KFWD 210003
RWRTX
NORTH TEXAS HOURLY WEATHER ROUNDUP
NATIONAL WEATHER SERVICE FORT WORTH TX
700 PM CDT SAT SEP 20 2014

NOTE: "FAIR" INDICATES FEW OR NO CLOUDS BELOW 12,000 FEET WITH NO
SIGNIFICANT WEATHER AND/OR OBSTRUCTIONS TO VISIBILITY.

TXZ118-119-210100-
DALLAS/FORT WORTH METROPLEX

CITY           SKY/WX    TMP DP  RH WIND       PRES   REMARKS
DFW AIRPORT    PTCLDY    89  58  34 SE12      29.93R
6HR MIN TEMP:  86; 6HR MAX TEMP:  92;

DALLAS LOVE    PTCLDY    89  59  36 SE14      29.93S
6HR MIN TEMP:  87; 6HR MAX TEMP:  93;

FTW MEACHAM    CLEAR     89  59  36 SE12      29.92S
6HR MIN TEMP:  85; 6HR MAX TEMP:  92;

DAL-EXECUTIVE  CLEAR     89  60  37 SE9       29.93S
6HR MIN TEMP:  87; 6HR MAX TEMP:  94;

FTW-ALLIANCE   PTCLDY    88  59  37 SE9       29.93R
6HR MIN TEMP:  85; 6HR MAX TEMP:  91; 6HR PCP: TRACE;

FTW-NAS-JRB    PTCLDY    91  58  32 SE8       29.97S HX  90
6HR MIN TEMP:  88; 6HR MAX TEMP:  94;

FTW-SPINKS     CLEAR     88  57  35 SE7       29.95R
ARLINGTON      CLEAR     88  59  37 SE10      29.93R
6HR MIN TEMP:  85; 6HR MAX TEMP:  92;

GRAND PRAIRIE  CLEAR     90  55  31 MISG      29.94R
ADDISON        PTCLDY    90  55  31 E10       29.94S
MESQUITE       CLEAR     88  57  35 E8        29.94S
LANCASTER      CLEAR     87  58  37 SE8       29.95R
6HR MIN TEMP:  87; 6HR MAX TEMP:  93;

$$

TXZ091>094-102>105-117-120-121-131>134-210100-
NORTH CENTRAL TEXAS

CITY           SKY/WX    TMP DP  RH WIND       PRES   REMARKS
SHRMAN/DENISON CLEAR     86  61  42 E5        29.97R
6HR MIN TEMP:  85; 6HR MAX TEMP:  90;

GAINESVILLE    CLEAR     85  65  51 SE3       29.97S
6HR MIN TEMP:  83; 6HR MAX TEMP:  88;

BOWIE          CLEAR     84  67  57 CALM      29.96S
6HR MIN TEMP:  83; 6HR MAX TEMP:  89;

BRIDGEPORT     MOCLDY    86  63  46 SE5       29.96R
6HR MIN TEMP:  85; 6HR MAX TEMP:  90;

DECATUR        CLEAR     85  62  46 SE6       29.96R
6HR MIN TEMP:  83; 6HR MAX TEMP:  89;

DENTON         CLEAR     88  60  38 SE9       29.93S
6HR MIN TEMP:  85; 6HR MAX TEMP:  90; 6HR PCP: TRACE;

MCKINNEY       CLEAR     88  61  40 SE12      29.94S
6HR MIN TEMP:  86; 6HR MAX TEMP:  92;

GREENVILLE     CLEAR     88  59  37 SE7       29.95S
ROCKWALL       CLEAR     86  62  43 E6        29.93S
6HR MIN TEMP:  86; 6HR MAX TEMP:  92;

TERRELL        CLEAR     89  60  37 E9        29.95R
6HR MIN TEMP:  89; 6HR MAX TEMP:  94;

WAXAHACHIE     CLEAR     87  55  34 E3        29.95S
6HR MIN TEMP:  87; 6HR MAX TEMP:  92;

CLEBURNE       PTCLDY    88  63  42 E9        29.96S
GRANBURY       PTCLDY    87  65  47 SE8       29.95S
6HR MIN TEMP:  85; 6HR MAX TEMP:  91;

$$

TXZ083>090-098>101-113>116-127>130-139>142-154-155-210100-
WESTERN NORTH TEXAS

CITY           SKY/WX    TMP DP  RH WIND       PRES   REMARKS
WICHITA FALLS  CLEAR     85  68  56 SE9       29.94S
6HR MIN TEMP:  83; 6HR MAX TEMP:  89;

WF-KICKAPOO    CLEAR     86  65  49 SE8       29.96R
6HR MIN TEMP:  74; 6HR MAX TEMP:  90;

VERNON         MOCLDY    87  67  51 E8        29.97R HX  90
6HR MIN TEMP:  68; 6HR MAX TEMP:  90;

ABILENE        RAIN      76  72  87 E8        29.99R
6HR MIN TEMP:  76; 6HR MAX TEMP:  85; 6HR PCP:  0.02;

ABILENE-DYESS  CLOUDY    79  66  64 SE14      29.98R
6HR MIN TEMP:  79; 6HR MAX TEMP:  84;

BRECKENRIDGE   PTCLDY    84  68  58 E8        29.96R
6HR MIN TEMP:  83; 6HR MAX TEMP:  90;

MINERAL WELLS  PTCLDY    85  64  49 SE10      29.94R
6HR MIN TEMP:  84; 6HR MAX TEMP:  90;

STEPHENVILLE   PTCLDY    83  67  59 SE9       29.99S
6HR MIN TEMP:  82; 6HR MAX TEMP:  86;

COMANCHE       MOCLDY    82  68  62 E6        29.97R
6HR MIN TEMP:  75; 6HR MAX TEMP:  86;

BROWNWOOD      MOCLDY    79  70  73 SE7       29.97S
COLEMAN        CLOUDY    78  70  75 E6        29.98F
6HR MIN TEMP:  76; 6HR MAX TEMP:  85;

BRADY          CLEAR     81  70  69 E6        29.98R
$$

TXZ143>147-156>162-174-175-210100-
CENTRAL TEXAS

CITY           SKY/WX    TMP DP  RH WIND       PRES   REMARKS
WACO           CLEAR     86  63  45 E10       29.93R
6HR MIN TEMP:  82; 6HR MAX TEMP:  91;

WACO-TSTC      CLEAR     84  64  51 E5        29.93R
WACO-MCGREGOR  PTCLDY    88  63  42 E10       29.94R
6HR MIN TEMP:  82; 6HR MAX TEMP:  90;

HILLSBORO      PTCLDY    87  60  39 E9        29.94R
6HR MIN TEMP:  86; 6HR MAX TEMP:  92;

CORSICANA      CLEAR     87  62  43 SE10      29.95R
6HR MIN TEMP:  87; 6HR MAX TEMP:  92;

MEXIA          CLEAR     83  66  55 E7        29.94S
6HR MIN TEMP:  83; 6HR MAX TEMP:  88;

HEARNE         CLEAR     85  67  55 E5        29.93R
6HR MIN TEMP:  85; 6HR MAX TEMP:  89;

CAMERON        CLEAR     84  68  57 E5        29.93R
6HR MIN TEMP:  84; 6HR MAX TEMP:  90;

TEMPLE         PTCLDY    84  64  51 E9        29.93S
6HR MIN TEMP:  81; 6HR MAX TEMP:  90;

KILLEEN        NOT AVBL
KILLEEN-SKYLRK PTCLDY    82  66  57 E8        29.94R
6HR MIN TEMP:  81; 6HR MAX TEMP:  88; 6HR PCP:  0.03;

FORT HOOD      PTCLDY    86  69  56 E8        29.95R HX  90
6HR MIN TEMP:  85; 6HR MAX TEMP:  89;

HAMILTON       PTCLDY    83  68  60 SE7G20    29.98R
6HR MIN TEMP:  83; 6HR MAX TEMP:  88;

LAMPASAS       PTCLDY    82  73  73 E9        29.96R
6HR MIN TEMP:  81; 6HR MAX TEMP:  88;

$$

TXZ095>097-106>112-122>126-135>138-148>153-164>167-210100-
EAST TEXAS

CITY           SKY/WX    TMP DP  RH WIND       PRES   REMARKS
PARIS          CLEAR     84  64  51 E6        29.97R
6HR MIN TEMP:  84; 6HR MAX TEMP:  90;

SULPHUR SPRNGS CLEAR     86  64  46 E5        29.97S
6HR MIN TEMP:  86; 6HR MAX TEMP:  91;

MOUNT PLEASANT CLEAR     85  64  50 CALM      29.96S
6HR MIN TEMP:  85; 6HR MAX TEMP:  91;

GILMER         CLEAR     88  68  51 CALM      29.96S HX  91
MINEOLA        CLEAR     86  66  51 CALM      29.95S
TYLER          CLEAR     85  65  51 SE5       29.95S
6HR MIN TEMP:  85; 6HR MAX TEMP:  91;

LONGVIEW       PTCLDY    86  66  51 SE5       29.94R
6HR MIN TEMP:  86; 6HR MAX TEMP:  92;

MARSHALL       CLEAR     89  63  42 CALM      29.96S
6HR MIN TEMP:  89; 6HR MAX TEMP:  96;

ATHENS         CLEAR     84  63  48 SE3       29.94S
PALESTINE      CLEAR     84  66  54 E3        29.95F
JACKSONVILLE   CLEAR     85  64  49 CALM      29.98S
HENDERSON      CLEAR     83  67  59 CALM      29.95S
6HR MIN TEMP:  83; 6HR MAX TEMP:  90;

NACOGDOCHES    CLEAR     84  64  51 S3        29.95S
6HR MIN TEMP:  84; 6HR MAX TEMP:  90;

LUFKIN         CLEAR     86  69  56 E3        29.94S HX  90
6HR MIN TEMP:  86; 6HR MAX TEMP:  92;

$$

SUPPLEMENTAL OBSERVATIONS (CENTRAL)

CITY           SKY/WX    TMP DP  RH WIND       PRES   REMARKS
$$

SUPPLEMENTAL OBSERVATIONS (WEST)

CITY           SKY/WX    TMP DP  RH WIND       PRES   REMARKS
$$

SUPPLEMENTAL OBSERVATIONS (EAST)

CITY           SKY/WX    TMP DP  RH WIND       PRES   REMARKS
$$

SUPPLEMENTAL OBSERVATIONS ARE A COLLECTION OF AUTOMATED INSTRUMENTS
THAT ARE MAINTAINED BY A VARIETY OF FEDERAL AND STATE AGENCIES.
CERTAIN ELEMENTS...SUCH AS HUMIDITY VALUES AND SUSTAINED WIND
SPEEDS...MAY BE APPROXIMATED.




USA.gov is the U.S. government's official web portal to all federal, state and local government web resources and services.